Regional Weather Roundup
Issued by NWS

Home | Current Version | Previous Version | Text Only | Print | Product List | Glossary Off
Versions: 1 2 3 4 5 6 7 8 9 10 11 12 13 14 15 16 17 18 19 20 21 22 23 24 25 26 27 28 29 30 31 32 33 34 35 36 37 38 39 40 41 42 43 44 45 46 47 48 49 50

838
ASUS43 KMPX 271110
RWRMN
WEATHER ROUNDUP FOR MINNESOTA
NATIONAL WEATHER SERVICE TWIN CITIES/CHANHASSEN MN
600 AM CDT MON MAR 27 2017


NOTE: "FAIR" INDICATES FEW OR NO CLOUDS BELOW 12,000 FEET WITH NO
SIGNIFICANT WEATHER AND/OR OBSTRUCTIONS TO VISIBILITY. N/A MEANS
CURRENT SKY AND/OR WEATHER CONDITIONS ARE NOT AVAILABLE.

MNZ060>063-068>070-271200-
   Twin Cities Metro

CITY           SKY/WX    TMP DP  RH WIND       PRES   REMARKS
TWIN CITIES    CLOUDY    38  34  85 N7        29.96S
ST PAUL        CLOUDY    37  36  96 N5        29.96F
CRYSTAL        CLOUDY    38  33  82 N6        29.95S
BLAINE         CLOUDY    37  37 100 NW3       29.96S
LAKEVILLE      CLOUDY    36  36 100 NW5       29.94F FOG
EDEN PRAIRIE   CLOUDY    39  34  82 NW5       29.95S
SOUTH ST PAUL  CLOUDY    37  36  96 N5        29.95F
LAKE ELMO      MIX PCPN  36  36 100 N5        29.96F
$$
MNZ001>005-007-008-013>017-022>024-027-028-271200-
   Northwest Minnesota

CITY           SKY/WX    TMP DP  RH WIND       PRES   REMARKS
BEMIDJI        MOCLDY    30  29  99 CALM      29.94S
HALLOCK        FOG       30  28  93 CALM      29.98R VSB<1/4
ROSEAU         HAZE      28  23  80 CALM      29.96R VSB 3/4
WARROAD        PTCLDY    27  23  86 CALM      29.96S FOG
THIEF RVR FALL FOG       29  28  96 S3        29.97  VSB 1/4
CROOKSTON      FOG       32  32 100 E3        29.97S VSB<1/4
FOSSTON        FOG       30  28  93 CALM      29.96R VSB 1/4
DETROIT LAKES  PTCLDY    36  34  93 CALM      29.95S FOG
MOORHEAD       CLOUDY    34  32  93 CALM      29.96S FOG
PARK RAPIDS    CLOUDY    34  29  82 CALM      29.93S
MAHNOMEN       FAIR      34  33  99 SE5       29.94S FOG     WCI  30
$$
MNZ006-009>011-018-025>026-271200-
   North Central Minnesota

CITY           SKY/WX    TMP DP  RH WIND       PRES   REMARKS
BAUDETTE       FOG       28  26  92 CALM      29.95S VSB 1/4
FLAG ISLAND    CLEAR     27  25  93 S3        29.95S
INTL FALLS     CLEAR     26  23  88 CALM      29.95S
WASKISH        CLEAR     27  27 100 CALM      29.96R
BIG FORK       CLOUDY    28  27  93 CALM      29.94S
LONGVILLE      CLOUDY    32  30  93 CALM      29.94S
GRAND RAPIDS   CLOUDY    32  29  88 CALM      29.96R
CRANE LAKE     PTCLDY    25  25 100 CALM      29.97R
ORR            PTCLDY    28  27  93 CALM      29.93R
COOK           MOCLDY    30  28  93 CALM      29.95R
WALKER         CLOUDY    34  31  90 CALM      29.93F
$$
MNZ012-019>021-037-271200-
   Northeast Minnesota

CITY           SKY/WX    TMP DP  RH WIND       PRES   REMARKS
DULUTH         CLOUDY    32  32 100 W3        29.93R
ELY            CLOUDY    30  28  93 CALM      29.93R
HIBBING        CLOUDY    30  30 100 CALM      29.93R
EVELETH        CLOUDY    32  31  96 CALM      29.94R
DULUTH HARBOR  CLOUDY    34  32  93 CALM      29.97R
TWO HARBORS    CLOUDY    37  32  81 NW3       29.91S
SILVER BAY     CLOUDY    34  34 100 CALM      29.92R
GRAND MARAIS     N/A     34  33  96 W6        29.94R WCI  29
G MARAIS ARPRT CLOUDY    34  28  80 NW6       29.90R WCI  29
$$
MNZ029>031-032-039>041-046>048-054>057-064-271200-
   West Central Minnesota

CITY           SKY/WX    TMP DP  RH WIND       PRES   REMARKS
FERGUS FALLS   CLOUDY    34  34 100 CALM      29.99R
WHEATON        CLOUDY    32  30  93 SE5       29.97S WCI  27
MORRIS         CLOUDY    32  30  93 CALM      29.95R FOG
ALEXANDRIA     CLOUDY    36  33  89 CALM      29.95R
ELBOW LAKE     MOCLDY    32  32 100 CALM      29.95S FOG
WADENA         MOCLDY    30  30 100 CALM      29.95R FOG
GLENWOOD       CLOUDY    36  34  93 N5        29.95S
APPLETON       CLOUDY    36  34  93 CALM      29.95F FOG
BENSON         CLOUDY    34  30  86 CALM      29.98R FOG
ORTONVILLE     CLOUDY    36  34  93 CALM      29.94F FOG
MADISON        CLOUDY    37  37 100 E5        29.95F FOG
WILLMAR        CLOUDY    34  34 100 CALM      29.97R FOG
$$
MNZ033>034-036-042>043-049>051-058-059-271200-
   Central Minnesota

CITY           SKY/WX    TMP DP  RH WIND       PRES   REMARKS
ST CLOUD       CLOUDY    34  34 100 CALM      29.96S
SAUK CENTRE    PTSUNNY   32  32  99 CALM      29.95S
PAYNESVILLE      N/A     34  34 100 CALM      29.96S FOG
AITKIN         CLOUDY    36  30  80 CALM      29.93S
PINE RIVER     PTCLDY    30  30 100 CALM      29.98S
BRAINERD       PTCLDY    32  30  92 CALM      29.95S
STAPLES        MOCLDY    34  32  93 CALM      29.95R
LONG PRAIRIE   FAIR      32  32 100 CALM      29.95R
LITTLE FALLS   CLOUDY    32  32 100 CALM      29.95S
LITCHFIELD     MOCLDY    37  37 100 CALM      29.95F
BUFFALO        CLOUDY    37  36  93 CALM      29.98R
MAPLE LAKE     CLOUDY    37  37 100 CALM      29.97S
HUTCHINSON     CLOUDY    38  37  95 CALM      29.97S
$$
MNZ037-044-045-052-053-271200-
   East Central Minnesota

CITY           SKY/WX    TMP DP  RH WIND       PRES   REMARKS
PRINCETON      FOG       36  34  93 CALM      29.97S VSB 1/2
MORA           FOG       32  32 100 CALM      29.98R VSB 1/4
CAMBRIDGE      CLOUDY    37  36  93 CALM      29.95S FOG
RUSH CITY      CLOUDY    35  34  95 CALM      29.97R FOG
MOOSE LAKE     CLOUDY    32  30  93 CALM      29.94R FOG
CLOQUET        CLOUDY    30  28  93 S3        29.94R
MCGREGOR       CLOUDY    32  32 100 CALM      29.95R
$$
MNZ071>073-080-081-089-090-097-098-271200-
   Southwest Minnesota

CITY           SKY/WX    TMP DP  RH WIND       PRES   REMARKS
MONTEVIDEO     CLOUDY    36  36 100 N5        29.98S
GRANITE FALLS  CLOUDY    38  37  93 NW5       29.98S
CANBY          MOCLDY    37  36  96 CALM      29.96F
MARSHALL       CLOUDY    38  36  92 CALM      29.96S
REDWOOD FALLS  CLOUDY    40  36  86 N6        29.95S
OLIVIA         CLOUDY    36  34  93 CALM      29.95S
PIPESTONE      CLOUDY    36  34  93 CALM      29.94R
WINDOM         MOCLDY    39  37  93 N6        29.95S
WORTHINGTON    MOCLDY    36  33  89 N3        29.95S
JACKSON        CLOUDY    37  36  93 NW6       29.95S FOG
TRACY          CLOUDY    40  38  91 CALM      29.96S
SLAYTON        CLOUDY    37  35  94 CALM      29.95F
$$
MNZ065>067-074>077-082>085-091>093-271200-
   South Central Minnesota

CITY           SKY/WX    TMP DP  RH WIND       PRES   REMARKS
MANKATO        CLOUDY    37  36  96 N8        29.96R
NEW ULM        CLOUDY    37  36  93 CALM      29.96S
ST JAMES       CLOUDY    37  37 100 CALM      29.97R
FAIRMONT       CLOUDY    39  37  92 NW3       29.96R
GLENCOE        CLOUDY    38  38 100 CALM      29.96R
FARIBAULT      CLOUDY    37  37 100 NW6       29.95R FOG
OWATONNA       CLOUDY    37  36  93 NW3       29.95R FOG
WASECA         CLOUDY    36  36 100 NW7       29.96R
ALBERT LEA     FOG       37  37 100 CALM      29.95R VSB 1
$$
MNZ078>079-086>088-094>096-271200-
   Southeast Minnesota

CITY           SKY/WX    TMP DP  RH WIND       PRES   REMARKS
ROCHESTER      CLOUDY    37  37 100 NW6       29.94R FOG
RED WING       CLOUDY    37  37 100 CALM      29.94S FOG
STANTON        CLOUDY    38  37  94 N6        29.93F FOG
DODGE CENTER   CLOUDY    37  36  93 NW3       29.94R FOG
WINONA         CLOUDY    37  37 100 N5        29.94S FOG
AUSTIN         FOG       37  37 100 NW6       29.94R VSB 1/4
PRESTON        CLOUDY    38  37  97 NW5       29.94R FOG
$$
ABBREVIATIONS USED IN REMARKS
   TC - TEMPERATURES IN CELSIUS
  WCI - WIND CHILL INDEX
   HX - HEAT INDEX
  VSB - VISIBILITY
$$




USA.gov is the U.S. government's official web portal to all federal, state and local government web resources and services.